Airfield :
LOGIN :

Register | Disclaimer

   EN    FR    IT 

 










Legend :    VFR   Marginal VFR   IFR   Intensive IFR   Very Intensive IFR
Visi :
Ceiling :
>= 8 km
>= 3000ft
5 to 8 km
1000 to 3000 ft
1500m to 5 km
500 to 1000 ft
800 to 1500m
200 to 500 ft
< 800m
< 200 ft
Symbols :   Thunderstorms  Fog  Heavy snow  Heavy precipitations  Wind > 20 kt
SIGMETs :     Misc.  Thunderstorms  Icing  Turbulence  Mountain Waves  Volcanic Ashes







- Airport Elevation : 209 ft
- IATA code : CLY
- Download approach charts


LFKC - Calvi

CURRENT METAR :
  • 200530Z AUTO VRB03KT CAVOK 12/07 Q1015 NOSIG

EXPIRED METARs :
  • 200500Z AUTO 19005KT CAVOK 12/06 Q1015 NOSIG
  • 200430Z AUTO VRB02KT CAVOK 13/05 Q1015 NOSIG
  • 200400Z AUTO VRB03KT CAVOK 13/05 Q1014 NOSIG
  • 200330Z AUTO VRB03KT CAVOK 12/05 Q1014 NOSIG
  • 200300Z AUTO 16008KT 150V210 CAVOK 13/06 Q1014 NOSIG

TAF TAF LFKC
Valid from the 20 at 03:00 until the 21 at 03:00 UTC


200200Z 2003/2103 19005KT 9999 FEW040
BECMG 2011/2012 30006KT TX23/2012Z TN14/2003Z
ATIS : +33 4 95 65 82 49
No reported NOTAMs for that airfield.



MET'MAP, your aeronautical weather chart ! - Copyright ORBIFLY December 2007 - Disclaimer

ORBIFLY MET'MAP TEAM :

Programming & Development : Alexandra Zaïnal
Concept & Development : Baudouin d'Aumeries
Co-Development & Prog : Marc-Olivier Méhu
Technical & hardware support : Manuel Goepfert

Contact : metmap@orbifly.com




SOURCES & CREDITS :

   NOAA